When you browse on this site, cookies collect data to enhance your experience and personalize the content and advertising you see.
Visit our Privacy Policy to learn more. By continuing to use the site, you agree to this use of cookies and data.
  • In Portugal
  • List of Countries
  • For 7 days
  • Water Temperature
  • Satellite Maps
  • Weather Map
  • Weather Widgets
  • user-avatar
    Login

    Hourly Weather Debalcevo

    Today, 25 May, Saturday

    Time Temperature Precipitation Wind Pressure Humidity
    00:00 +16°C° 0.1 mm 2 mps 729 mmHg 84%
    01:00 +16°C° 0 mm 2 mps 729 mmHg 85%
    02:00 +15°C° 0 mm 2 mps 729 mmHg 85%
    03:00 +15°C° 0 mm 2 mps 729 mmHg 86%
    04:00 +15°C° 0 mm 2 mps 729 mmHg 84%
    05:00 +15°C° 0 mm 2 mps 729 mmHg 82%
    06:00 +16°C° 0 mm 2 mps 729 mmHg 80%
    07:00 +17°C° 0.2 mm 2 mps 729 mmHg 76%
    08:00 +19°C° 0.2 mm 3 mps 729 mmHg 72%
    09:00 +21°C° 0 mm 3 mps 729 mmHg 68%
    10:00 +21°C° 2 mm 4 mps 729 mmHg 66%
    11:00 +22°C° 2 mm 4 mps 729 mmHg 65%
    12:00 +22°C° 2 mm 4 mps 728 mmHg 63%
    13:00 +22°C° 1.3 mm 5 mps 728 mmHg 65%
    14:00 +22°C° 1.3 mm 5 mps 728 mmHg 67%
    15:00 +22°C° 1.3 mm 5 mps 728 mmHg 69%
    16:00 +20°C° 0.9 mm 5 mps 728 mmHg 75%
    17:00 +19°C° 0.9 mm 5 mps 728 mmHg 81%
    18:00 +17°C° 0.9 mm 5 mps 727 mmHg 86%
    19:00 +17°C° 0.9 mm 4 mps 727 mmHg 88%
    20:00 +17°C° 0.9 mm 4 mps 727 mmHg 90%
    21:00 +16°C° 0.9 mm 3 mps 727 mmHg 92%
    22:00 +16°C° 1.6 mm 3 mps 727 mmHg 93%
    23:00 +16°C° 1.6 mm 3 mps 727 mmHg 93%

    Tomorrow, 26 May, Sunday

    Time Temperature Precipitation Wind Pressure Humidity
    00:00 +16°C° 1.6 mm 3 mps 726 mmHg 94%
    01:00 +16°C° 1.5 mm 3 mps 726 mmHg 94%
    02:00 +16°C° 1.5 mm 3 mps 726 mmHg 94%
    03:00 +15°C° 1.5 mm 4 mps 726 mmHg 93%
    04:00 +15°C° 1.3 mm 4 mps 726 mmHg 93%
    05:00 +15°C° 1.3 mm 4 mps 726 mmHg 93%
    06:00 +15°C° 1.3 mm 5 mps 726 mmHg 92%
    07:00 +15°C° 0.8 mm 5 mps 727 mmHg 90%
    08:00 +15°C° 0.8 mm 5 mps 727 mmHg 89%
    09:00 +16°C° 0.8 mm 5 mps 727 mmHg 87%
    10:00 +17°C° 0.8 mm 5 mps 727 mmHg 81%
    11:00 +20°C° 0.8 mm 5 mps 728 mmHg 76%
    12:00 +21°C° 0.8 mm 6 mps 728 mmHg 70%
    13:00 +21°C° 1.2 mm 5 mps 728 mmHg 69%
    14:00 +22°C° 1.2 mm 5 mps 728 mmHg 67%
    15:00 +22°C° 1.2 mm 5 mps 728 mmHg 66%
    16:00 +22°C° 0.7 mm 5 mps 728 mmHg 68%
    17:00 +22°C° 0.7 mm 4 mps 728 mmHg 70%
    18:00 +22°C° 0.7 mm 4 mps 728 mmHg 72%
    19:00 +20°C° 0.5 mm 4 mps 729 mmHg 76%
    20:00 +19°C° 0.5 mm 4 mps 729 mmHg 80%
    21:00 +18°C° 0.5 mm 4 mps 729 mmHg 84%
    22:00 +17°C° 0.3 mm 4 mps 730 mmHg 85%
    23:00 +17°C° 0.3 mm 4 mps 730 mmHg 86%

    Day after tomorrow, 27 May, Monday

    Time Temperature Precipitation Wind Pressure Humidity
    00:00 +17°C° 0.3 mm 4 mps 731 mmHg 87%
    01:00 +16°C° 0 mm 3 mps 731 mmHg 89%
    02:00 +16°C° 0 mm 3 mps 731 mmHg 90%
    03:00 +14°C° 0 mm 3 mps 732 mmHg 91%
    04:00 +14°C° 0 mm 3 mps 732 mmHg 91%
    05:00 +14°C° 0 mm 3 mps 733 mmHg 90%
    06:00 +14°C° 0 mm 3 mps 733 mmHg 90%
    07:00 +17°C° 0 mm 3 mps 734 mmHg 83%
    08:00 +19°C° 0 mm 3 mps 734 mmHg 76%
    09:00 +20°C° 0 mm 4 mps 735 mmHg 69%
    10:00 +21°C° 0 mm 4 mps 735 mmHg 64%
    11:00 +22°C° 0 mm 4 mps 735 mmHg 59%
    12:00 +23°C° 0 mm 4 mps 736 mmHg 53%
    13:00 +25°C° 0 mm 4 mps 736 mmHg 52%
    14:00 +25°C° 0 mm 4 mps 736 mmHg 50%
    15:00 +25°C° 0 mm 4 mps 736 mmHg 48%
    16:00 +25°C° 0 mm 3 mps 736 mmHg 51%
    17:00 +25°C° 0 mm 3 mps 736 mmHg 55%
    18:00 +25°C° 0 mm 2 mps 736 mmHg 59%
    19:00 +23°C° 0 mm 2 mps 736 mmHg 62%
    20:00 +21°C° 0 mm 1 mps 736 mmHg 66%
    21:00 +20°C° 0 mm 1 mps 737 mmHg 70%
    22:00 +19°C° 0 mm 1 mps 737 mmHg 71%
    23:00 +19°C° 0 mm 1 mps 737 mmHg 71%

    28 May, Tuesday

    Time Temperature Precipitation Wind Pressure Humidity
    00:00 +19°C° 0 mm 1 mps 737 mmHg 72%
    01:00 +18°C° 0 mm 1 mps 737 mmHg 73%
    02:00 +18°C° 0 mm 1 mps 737 mmHg 74%
    03:00 +18°C° 0 mm 1 mps 737 mmHg 75%
    04:00 +18°C° 0 mm 1 mps 737 mmHg 75%
    05:00 +19°C° 0 mm 1 mps 737 mmHg 75%
    06:00 +19°C° 0 mm 1 mps 737 mmHg 75%
    07:00 +21°C° 0 mm 1 mps 738 mmHg 70%
    08:00 +22°C° 0 mm 1 mps 738 mmHg 64%
    09:00 +24°C° 0 mm 2 mps 738 mmHg 58%
    10:00 +25°C° 0 mm 1 mps 738 mmHg 55%
    11:00 +26°C° 0 mm 1 mps 738 mmHg 51%
    12:00 +27°C° 0 mm 1 mps 738 mmHg 48%
    13:00 +28°C° 0 mm 1 mps 738 mmHg 46%
    14:00 +28°C° 0 mm 1 mps 738 mmHg 45%
    15:00 +28°C° 0 mm 1 mps 738 mmHg 44%
    16:00 +27°C° 0 mm 1 mps 738 mmHg 49%
    17:00 +27°C° 0 mm 1 mps 737 mmHg 54%
    18:00 +26°C° 0 mm 2 mps 737 mmHg 59%
    19:00 +25°C° 0 mm 2 mps 737 mmHg 62%
    20:00 +23°C° 0 mm 2 mps 737 mmHg 66%
    21:00 +21°C° 0 mm 2 mps 737 mmHg 70%
    22:00 +20°C° 0 mm 2 mps 737 mmHg 72%
    23:00 +21°C° 0 mm 1 mps 737 mmHg 74%

    29 May, Wednesday

    Time Temperature Precipitation Wind Pressure Humidity
    00:00 +20°C° 0 mm 1 mps 737 mmHg 76%
    01:00 +20°C° 0 mm 1 mps 737 mmHg 77%
    02:00 +19°C° 0 mm 1 mps 737 mmHg 77%
    03:00 +19°C° 0 mm 1 mps 737 mmHg 78%
    04:00 +19°C° 0 mm 1 mps 737 mmHg 78%
    05:00 +18°C° 0 mm 2 mps 737 mmHg 78%
    06:00 +19°C° 0 mm 2 mps 737 mmHg 78%
    07:00 +20°C° 0 mm 3 mps 737 mmHg 73%
    08:00 +22°C° 0 mm 3 mps 737 mmHg 67%
    09:00 +25°C° 0 mm 4 mps 737 mmHg 61%
    10:00 +26°C° 0 mm 4 mps 737 mmHg 59%
    11:00 +26°C° 0 mm 5 mps 737 mmHg 57%
    12:00 +27°C° 0 mm 5 mps 737 mmHg 55%
    13:00 +27°C° 0 mm 5 mps 737 mmHg 54%
    14:00 +28°C° 0 mm 5 mps 737 mmHg 53%
    15:00 +28°C° 0 mm 5 mps 737 mmHg 53%
    16:00 +28°C° 0 mm 4 mps 737 mmHg 55%
    17:00 +27°C° 0 mm 4 mps 736 mmHg 58%
    18:00 +27°C° 0 mm 3 mps 736 mmHg 61%
    19:00 +25°C° 0 mm 3 mps 736 mmHg 64%
    20:00 +24°C° 0 mm 3 mps 736 mmHg 67%
    21:00 +21°C° 0 mm 3 mps 736 mmHg 71%
    22:00 +20°C° 0 mm 3 mps 736 mmHg 72%
    23:00 +20°C° 0 mm 3 mps 736 mmHg 73%

    30 May, Thursday

    Time Temperature Precipitation Wind Pressure Humidity
    00:00 +19°C° 0 mm 3 mps 736 mmHg 74%
    01:00 +19°C° 0 mm 3 mps 736 mmHg 74%
    02:00 +18°C° 0 mm 2 mps 736 mmHg 75%
    03:00 +18°C° 0 mm 2 mps 736 mmHg 75%
    04:00 +18°C° 0 mm 2 mps 736 mmHg 74%
    05:00 +18°C° 0 mm 3 mps 736 mmHg 74%
    06:00 +18°C° 0 mm 3 mps 736 mmHg 74%
    07:00 +20°C° 0 mm 3 mps 736 mmHg 68%
    08:00 +22°C° 0 mm 4 mps 737 mmHg 62%
    09:00 +25°C° 0 mm 4 mps 737 mmHg 56%
    10:00 +26°C° 0 mm 4 mps 737 mmHg 52%
    11:00 +28°C° 0 mm 4 mps 737 mmHg 48%
    12:00 +29°C° 0 mm 4 mps 737 mmHg 43%
    13:00 +29°C° 0 mm 4 mps 737 mmHg 43%
    14:00 +29°C° 0 mm 4 mps 736 mmHg 43%
    15:00 +30°C° 0 mm 4 mps 736 mmHg 43%
    16:00 +29°C° 0 mm 3 mps 736 mmHg 46%
    17:00 +29°C° 0 mm 3 mps 736 mmHg 50%
    18:00 +29°C° 0 mm 2 mps 736 mmHg 54%
    19:00 +27°C° 0 mm 2 mps 736 mmHg 57%
    20:00 +25°C° 0 mm 2 mps 736 mmHg 60%
    21:00 +23°C° 0 mm 2 mps 736 mmHg 63%
    22:00 +21°C° 0 mm 2 mps 736 mmHg 64%
    23:00 +21°C° 0 mm 2 mps 736 mmHg 65%
    Show more